Whippany, NJ

5:44 AM EDT on October 01, 2016 (GMT -0400)
Morristown Municipal

Weather History for KMMU - February, 2014

Change the Weather History Date:

Friday, February 21, 2014

  Actual Average Record
Temperature  
Mean Temperature 36 °F -  
Max Temperature 44 °F 43 °F 68 °F (1953)
Min Temperature 28 °F 21 °F -10 °F (1936)
Degree Days  
Heating Degree Days 29    
Moisture  
Dew Point 35 °F    
Average Humidity 95    
Maximum Humidity 100    
Minimum Humidity 93    
Precipitation  
Precipitation 0.00 in - - ()
Sea Level Pressure  
Sea Level Pressure 29.89 in    
Wind  
Wind Speed 3 mph (North)    
Max Wind Speed 14 mph    
Max Gust Speed -    
Visibility 2 miles    
Events Fog , Rain    
Averages and records for this station are not official NWS values.
T = Trace of Precipitation, MM = Missing Value Source: NWS Daily Summary

Daily Weather History Graph

Daily Weather History Graph

Search for Another Location

Airport or City:

Trip Planner

Search our weather history database for the weather conditions in past years. The results will help you decide how hot, cold, wet, or windy it might be!

Date:

Astronomy

Feb. 21, 2014 Rise Set
Actual Time 6:43 AM EST 5:39 PM EST
Civil Twilight 6:15 AM EST 6:07 PM EST
Nautical Twilight 5:43 AM EST 6:39 PM EST
Astronomical Twilight 5:12 AM EST 7:11 PM EST
Moon No Moon Rise 10:03 AM EST (2/21)
Length of Visible Light 11h 51m
Length of Day
10h 56m
Waning Gibbous, 61% of the Moon is Illuminated
Feb 21
Waning Gibbous
Feb 22
Last Quarter
Mar 1
New
Mar 8
First Quarter
Mar 16
Full

Hourly Weather History & Observations

Time (EST) Temp. Windchill Dew Point Humidity Pressure Visibility Wind Dir Wind Speed Gust Speed Precip Events Conditions
12:15 AM 37.4 °F - 35.6 °F 93% 30.03 in 0.8 mi Calm Calm - N/A   Overcast
12:35 AM 37.4 °F - 35.6 °F 93% 30.03 in 0.8 mi Calm Calm - N/A   Overcast
12:55 AM 37.4 °F 33.8 °F 35.6 °F 93% 30.02 in 0.8 mi North 4.6 mph - N/A   Overcast
1:15 AM 37.4 °F 33.8 °F 35.6 °F 93% 30.00 in 0.5 mi NE 4.6 mph - N/A Fog Fog
1:35 AM 37.4 °F 33.8 °F 35.6 °F 93% 30.00 in 0.5 mi NNE 4.6 mph - N/A Fog Fog
1:55 AM 37.4 °F 34.9 °F 35.6 °F 93% 29.98 in 0.2 mi NNE 3.5 mph - N/A Fog Fog
2:15 AM 37.4 °F 34.9 °F 35.6 °F 93% 29.98 in 0.2 mi NNE 3.5 mph - N/A Fog Fog
2:35 AM 37.4 °F - 35.6 °F 93% 29.97 in 0.2 mi Calm Calm - N/A Fog Fog
2:55 AM 37.4 °F - 35.6 °F 93% 29.97 in 0.2 mi Calm Calm - N/A Fog Fog
3:15 AM 37.4 °F - 35.6 °F 93% 29.96 in 0.2 mi Calm Calm - N/A Fog Fog
3:35 AM 37.4 °F 33.8 °F 35.6 °F 93% 29.95 in 0.2 mi NNE 4.6 mph - N/A Fog Fog
3:55 AM 37.4 °F 34.9 °F 35.6 °F 93% 29.95 in 0.2 mi North 3.5 mph - N/A Fog Fog
4:15 AM 37.4 °F 34.9 °F 35.6 °F 93% 29.95 in 0.2 mi NNE 3.5 mph - N/A Fog Fog
4:35 AM 37.4 °F - 35.6 °F 93% 29.95 in 0.2 mi Calm Calm - N/A Fog Fog
4:55 AM 37.4 °F 33.8 °F 35.6 °F 93% 29.94 in 0.2 mi NNE 4.6 mph - N/A Fog Fog
5:15 AM 37.4 °F 34.9 °F 35.6 °F 93% 29.96 in 0.2 mi NNE 3.5 mph - N/A Fog Fog
5:35 AM 37.4 °F 33.8 °F 35.6 °F 93% 29.95 in 0.2 mi NNE 4.6 mph - N/A Fog Fog
6:45 AM 35.6 °F 31.7 °F 35.6 °F 100% 29.94 in 0.5 mi NE 4.6 mph - N/A Fog Fog
7:45 AM 37.4 °F 34.9 °F 35.6 °F 93% 29.94 in 0.5 mi NE 3.5 mph - N/A Fog Fog
8:45 AM 37.4 °F 33.8 °F 35.6 °F 93% 29.93 in 1.0 mi NE 4.6 mph - N/A   Mist
9:45 AM 37.4 °F 32.8 °F 37.4 °F 100% 29.89 in 1.0 mi NE 5.8 mph - N/A Rain Light Rain
10:50 AM 37.4 °F 34.9 °F 37.4 °F 100% 29.88 in 1.0 mi NNE 3.5 mph - N/A Rain Light Rain
11:45 AM 37.4 °F - 37.4 °F 100% 29.82 in 0.5 mi Calm Calm - N/A Rain Light Rain
12:45 PM 39.2 °F 35.0 °F 37.4 °F 93% 29.75 in 0.5 mi NE 5.8 mph - N/A Rain Light Rain
1:45 PM 39.2 °F 35.9 °F 39.2 °F 100% 29.69 in 0.1 mi NE 4.6 mph - N/A Fog Fog
2:45 PM 39.2 °F 35.0 °F 37.4 °F 93% 29.69 in 0.2 mi NW 5.8 mph - N/A Fog Fog
3:10 PM 39.2 °F 31.2 °F 37.4 °F 93% 29.72 in 1.5 mi NW 13.8 mph - N/A Fog Fog
3:30 PM 39.2 °F 37.0 °F 39.2 °F 100% 29.72 in 3.0 mi NW 3.5 mph - N/A   Overcast
3:45 PM 39.2 °F - 39.2 °F 100% 29.73 in 1.5 mi Calm Calm - N/A   Overcast
4:18 PM 44.6 °F 40.2 °F 44.6 °F 100% 29.73 in 10.0 mi NNW 8.1 mph - N/A   Overcast
4:45 PM 44.6 °F 41.4 °F 44.6 °F 100% 29.74 in 10.0 mi NW 5.8 mph - N/A   Overcast
5:45 PM 41.0 °F - 39.2 °F 93% 29.76 in 10.0 mi Calm Calm - N/A   Overcast
6:45 PM 39.2 °F - 37.4 °F 93% 29.80 in 10.0 mi Calm Calm - N/A   Overcast
7:45 PM 35.6 °F 32.8 °F 33.8 °F 93% 29.84 in 10.0 mi WSW 3.5 mph - N/A   Scattered Clouds
8:45 PM 32.0 °F 28.7 °F 32.0 °F 100% 29.86 in 10.0 mi WNW 3.5 mph - N/A   Clear
9:45 PM 32.0 °F - 32.0 °F 100% 29.88 in 10.0 mi Calm Calm - N/A   Clear
9:55 PM 32.0 °F - 30.2 °F 93% 29.88 in 0.2 mi Calm Calm - N/A Fog Fog
10:15 PM 32.0 °F - 30.2 °F 93% 29.89 in 0.2 mi Calm Calm - N/A Fog Fog
10:35 PM 30.2 °F - 28.4 °F 93% 29.90 in 0.2 mi Calm Calm - N/A Fog Light Freezing Fog
10:55 PM 28.4 °F - 26.6 °F 93% 29.90 in 0.5 mi Calm Calm - N/A Fog Light Freezing Fog
11:15 PM 28.4 °F - 26.6 °F 93% 29.91 in 0.2 mi Calm Calm - N/A Fog Light Freezing Fog
11:35 PM 28.4 °F - 26.6 °F 93% 29.91 in 0.2 mi Calm Calm - N/A Fog Light Freezing Fog
11:55 PM 28.4 °F - 26.6 °F 93% 29.92 in 0.2 mi Calm Calm - N/A Fog Light Freezing Fog